Regional Weather Roundup
Issued by NWS

Home | Current Version | Previous Version | Graphics & Text | Print | Product List | Glossary On
Versions: 1 2 3 4 5 6 7 8 9 10 11 12 13 14 15 16 17 18 19 20 21 22 23 24 25 26 27 28 29 30 31 32 33 34 35 36 37 38 39 40 41 42 43 44 45 46 47 48 49 50
000
ASUS45 KABQ 190601
RWRNM
NEW MEXICO REGIONAL WEATHER ROUNDUP
NATIONAL WEATHER SERVICE ALBUQUERQUE NM
1100 PM MST THU JAN 18 2018

NOTE: "FAIR" MEANS FEW OR NO CLOUDS BELOW 12,000 FEET AGL WITH NO
       SIGNIFICANT WEATHER OR OBSTRUCTIONS TO VISION.

      THIS PRODUCT IS RELEASED AS TWO VERSIONS.  ONE VERSION NEAR
      THE TOP OF THE HOUR CONTAINING PRELIMINARY DATA FROM ALBUQUERQUE
      AND OTHER STATIONS.  A FINAL VERSION WITH ADDITIONAL DATA IS
      ISSUED ABOUT 10 MINUTES AFTER THE HOUR.

NMZ501-503-504-510>518-190700-
NORTHWEST PLATEAU/NORTHCENTRAL MOUNTAINS

CITY           SKY/WX    TMP DP  RH WIND       PRES   REMARKS
FARMINGTON     FAIR      28  16  60 E7        30.21S WCI  21
6HR MIN TEMP:  25; 6HR MAX TEMP:  44;

LOS ALAMOS     MOCLDY    41  10  28 CALM      30.19F
SANTA FE       FAIR      23   8  52 N6        30.17S WCI  16
6HR MIN TEMP:  22; 6HR MAX TEMP:  48;

TAOS           FAIR      20   4  50 N8        30.21F WCI  10
ANGEL FIRE     FAIR       9   0  65 CALM      30.21F

$$
NMZ402-403-502-505>509-190700-
WESTCENTRAL MOUNTAINS/SOUTHWEST MOUNTAINS

CITY           SKY/WX    TMP DP  RH WIND       PRES   REMARKS
GALLUP         FAIR      19  10  68 E5        30.23S WCI  12
6HR MIN TEMP:  19; 6HR MAX TEMP:  52;

GRANTS         FAIR      21   8  57 NW5       30.24F WCI  15
SILVER CITY    FAIR      30  14  50 N10       30.20F WCI  21

$$
NMZ407-409-411-412-190700-
SOUTHERN DESERTS

CITY           SKY/WX    TMP DP  RH WIND       PRES   REMARKS
DEMING         FAIR      28   9  44 NW6       30.20S WCI  22
6HR MIN TEMP:  28; 6HR MAX TEMP:  55;

LAS CRUCES     FAIR      29   7  39 CALM      30.21S
HOLLOMAN AFB   FAIR      26   6  41 N6        30.23S WCI  20
ALAMOGORDO     FAIR      28   7  40 CALM      30.21S
T OR C         FAIR      37   9  31 W8        30.19S WCI  31
6HR MIN TEMP:  35; 6HR MAX TEMP:  54;


$$
NMZ519>523-190700-
CENTRAL VALLEYS/CENTRAL HIGHLANDS

CITY           SKY/WX    TMP DP  RH WIND       PRES   REMARKS
ALBUQUERQUE    MOCLDY    35  10  35 CALM      30.20R
6HR MIN TEMP:  33; 6HR MAX TEMP:  51;

MORIARTY ARPT  FAIR      23   7  49 CALM      30.17S
6HR MIN TEMP:  18; 6HR MAX TEMP:  49;

CLINES CORNERS FAIR      32  12  43 NW18      30.15F WCI  20
6HR MIN TEMP:  28; 6HR MAX TEMP:  45;

BELEN          FAIR      30  10  43 NE3       30.19S
6HR MIN TEMP:  26; 6HR MAX TEMP:  50;

SOCORRO        FAIR      30   6  35 S5        30.20S WCI  25
6HR MIN TEMP:  30; 6HR MAX TEMP:  52;


$$
NMZ524>526-539-540-190700-
SOUTHCENTRAL MOUNTAINS

CITY           SKY/WX    TMP DP  RH WIND       PRES   REMARKS
RUIDOSO        NOT AVBL

$$
NMZ527>531-190700-
NORTHEAST HIGHLANDS/NORTHEAST PLAINS

CITY           SKY/WX    TMP DP  RH WIND       PRES   REMARKS
LAS VEGAS      FAIR      39   2  21 NW6       30.09F WCI  35
6HR MIN TEMP:  30; 6HR MAX TEMP:  48;

RATON          FAIR      26   6  42 N5        30.05F WCI  20
6HR MIN TEMP:  22; 6HR MAX TEMP:  50;

CLAYTON        FAIR      34   6  31 W15       29.99F WCI  24
6HR MIN TEMP:  34; 6HR MAX TEMP:  48;


$$
NMZ532>537-190700-
EASTCENTRAL PLAINS

CITY           SKY/WX    TMP DP  RH WIND       PRES   REMARKS
TUCUMCARI      FAIR      37  13  37 SW12      30.03F WCI  29
6HR MIN TEMP:  33; 6HR MAX TEMP:  54;

CANNON AFB     FAIR      33  11  41 W9        30.09F WCI  25
6HR MIN TEMP:  30; 6HR MAX TEMP:  48;

CLOVIS AIRPORT FAIR      31  14  49 W10       30.08F WCI  22

$$
NMZ028-029-538-190700-
SOUTHEAST PLAINS

CITY           SKY/WX    TMP DP  RH WIND       PRES   REMARKS
ROSWELL        FAIR      25   8  48 W8        30.11S WCI  16
6HR MIN TEMP:  25; 6HR MAX TEMP:  50;

ARTESIA        FAIR      30  10  43 S10       30.13F WCI  21
CARLSBAD       FAIR      23  10  57 W3        30.13F
6HR MIN TEMP:  22; 6HR MAX TEMP:  49;

HOBBS          FAIR      28  14  54 W7        30.14F WCI  21


$$



USA.gov is the U.S. government's official web portal to all federal, state and local government web resources and services.